www.pogodaiklimat.ru

Погода и климат >> Архив погоды >> Россия >> Камчатский край >> Мильково


ПОГОДА в Мильково

  • Прогноз погоды в Мильково
  • Монитор погоды в Мильково

АРХИВ ПОГОДЫ в Мильково

Время (UTC), дата Ветер
(напр.,м/с)
 
Видим.   Явления Облачность Т
(С)
Тd
(С)
f
(%)
Тe
(С)
Тes
(С)
Комфортность P
(гПа)
Po
(гПа)
Тmin
(С)
Tmax
(С)
R
(мм)
R24
(мм)
S
(см)
18 11.01 штиль 0 10 км слаб. ливневой снег 10/10 600 м
[Cb cap]
-10.3 -11.6 90 -11 -11 995.7 974.3
21 11.01 штиль 0 10 км слаб. ливневой снег 10/10 300 м
[Cb cap]
-8.7 -9.8 92 -9 -9 996.1 974.7 -12.9 0.8 81
00 12.01 штиль 0 10 км слаб. ливневой снег 10/10 300 м
[Cb cap]
-5.0 -5.9 93 -6 -6 997.8 976.7
03 12.01 В 2 20 км осадки на расстоянии {ливн. осадки} 10/8 600 м
[Cb cap Ci sp]
-4.9 -6.5 89 -9 -9 998.5 977.4
06 12.01 СВ 4 20 км позёмок {ливн. осадки} 10/6 600 м
[Cb cap Ac trans Ci sp]
-3.1 -6.9 75 -9 -9 1000.5 979.5
09 12.01 СВ 3
{8}
20 км {метель} 10/8 600 м
[Cb cap Ac trans]
-3.8 -7.6 75 -9 -9 1002.8 981.7 -2.4 0.3
12 12.01 С 1 20 км {метель} 10/6 1000 м
[Cb cap Ac trans]
-5.1 -8.6 76 -7 -7 1004.7 983.5
15 12.01 С 2 20 км 10/6 1000 м
[Cb cap Ac und]
-6.1 -8.9 81 -10 -10 1006.7 985.4
18 12.01 С 2 10 км слаб. ливневой снег 10/10 600 м
[Cb cap]
-6.0 -8.7 81 -10 -10 1008.3 986.9
21 12.01 С 1
{6}
10 км слаб. ливневой снег 10/8 600 м
[Cb cap Ac trans]
-6.9 -9.1 84 -9 -9 1009.9 988.5 -7.8 0.0 80
00 13.01 штиль 0 20 км осадки на расстоянии {ливн. осадки} 10/6 600 м
[Cb cap Ac trans]
-6.0 -9.1 79 -7 -7 1010.8 989.4
03 13.01 С 1 20 км осадки на расстоянии 10/6 600 м
[Cb cap Ac trans Ci sp]
-6.0 -9.7 75 -8 -8 1010.5 989.1
06 13.01 штиль 0 20 км 10/6 1000 м
[Cb cap Ac trans Ci fib]
-13.3 -14.7 89 -13 -13 1011.6 989.5
09 13.01 СЗ 1
{4}
20 км 10/6 1000 м
[Cb cap Ci sp]
-10.6 -11.8 91 -13 -13 1011.8 989.9 -5.6 0.0
12 13.01 штиль 0 20 км 10/6 1000 м
[Cb cap Ci sp]
-10.5 -11.8 90 -11 -11 1011.7 989.9
15 13.01 З 1 20 км 10/8 1000 м
[Cb cap Ci sp]
-10.5 -11.8 90 -13 -13 1011.7 989.9
18 13.01 З 1 20 км 10/8 600 м
[Cb cap Ci sp]
-10.6 -12.0 89 -13 -13 1011.6 989.8
21 13.01 штиль 0
{2}
5 баллов 88 990.7
00 14.01 З 2 осадки на расстоянии 5 баллов 78 990.7
03 14.01 З 1 осадки на расстоянии 5 баллов 80 989.3
06 14.01 штиль 0 9 баллов 86 989.3
09 14.01 З 1
{4}
20 км 10 баллов -21.0 -23.2 82 -24 -24 1013.5 990.7 -9.9
12 14.01 штиль 0 5 баллов 82 989.3
15 14.01 штиль 0 20 км 10 баллов -19.7 -21.8 83 -20 -20 1013.3 990.7
18 14.01 штиль 0 слаб. ливневой снег н/о 80 990.7
21 14.01 штиль 0
{2}
10 км слаб. ливневой снег 10 баллов -21.0 -23.2 82 -21 -21 1014.8 992.0 -24.2 0.4
00 15.01 штиль 0 50 км 6 баллов -20.4 -22.8 81 -20 -20 1016.1 993.3
03 15.01 штиль 0 3 балла 83 992.0
06 15.01 штиль 0 5 баллов 83 992.0
09 15.01 З 1
{2}
2 балла 78 994.7 0.0
12 15.01 СВ 1 9 баллов 80 994.7
15 15.01 З 1 9 баллов 83 996.0
18 15.01 штиль 0 5 баллов 84 996.0
21 15.01 штиль 0
{2}
слаб. ливневой снег н/о 84 997.3 0.0
00 16.01 З 1 10 км слаб. ливневой снег 10 баллов -17.1 -19.1 84 -20 -20 1021.3 998.7
03 16.01 З 1 слаб. ливневой снег н/о 82 996.0
06 16.01 штиль 0 20 км 10 баллов -20.5 -22.8 82 -21 -21 1018.8 996.0
09 16.01 штиль 0
{2}
10 км слаб. ливневой снег 10 баллов -19.9 -22.3 81 -20 -20 1018.8 996.0 -15.9 0.2
12 16.01 штиль 0 10 км слаб. ливневой снег 10 баллов -21.6 -24.0 81 -22 -22 1017.6 994.7
15 16.01 штиль 0 20 км 10 баллов -21.9 -24.5 79 -22 -22 1014.9 992.0
18 16.01 штиль 0 слаб. снег н/о 83 989.3
21 16.01 С 1
{4}
10 км слаб. ливневой снег 10 баллов -18.8 -21.0 83 -22 -22 1009.2 986.7 -23.2 0.8
00 17.01 СВ 3 2000 м ливневой снег 10 баллов -18.7 -21.1 81 -26 -26 1006.4 984.0
03 17.01 СВ 3 2000 м ливневой снег 10 баллов -19.1 -21.7 80 -27 -27 1001.0 978.7
06 17.01 ЮЗ 1 2000 м ливневой снег 10 баллов -18.9 -21.1 83 -22 -22 999.6 977.3
09 17.01 ЮЗ 2
{9}
2000 м ливневой снег 10 баллов -18.2 -20.4 83 -24 -24 999.5 977.3 -18.2 7
12 17.01 З 1 4000 м слаб. ливневой снег 10 баллов -17.6 -19.6 84 -20 -20 1000.9 978.7
15 17.01 З 1 4000 м слаб. ливневой снег 10 баллов -17.6 -19.6 84 -20 -20 1002.2 980.0
18 17.01 штиль 0 4000 м слаб. ливневой снег 10 баллов -20.1 -22.5 81 -20 -20 1003.8 981.3
21 17.01 Ю 1
{4}
2 балла 75 981.3 2.0
00 18.01 штиль 0 9 баллов 75 981.3
03 18.01 штиль 0 ясно 81 980.0
06 18.01 штиль 0 20 км 4 балла -25.5 -28.2 78 -26 -26 1002.9 980.0
09 18.01 штиль 0
{2}
2 балла 74 980.0
12 18.01 штиль 0 9 баллов 74 980.0
15 18.01 штиль 0 9 баллов 73 980.0

 

Местоположение метеостанции Мильково (Камчатский край, Россия): широта 54.68 долгота 158.50 высота над уровнем моря 168 м.

В архиве по умолчанию представлена погода в Мильково за последнюю неделю. Архивные данные за месяц целиком и за предыдущие месяцы, начиная с января 2011 года, Вы можете получить, выбрав интересующий диапазон дат из раскрывающегося списка и нажав кнопку "Ввод!".


*Определитесь, кто Вы:
робот инопланетянин человек

Внимание! Время в таблицах - всемирное. Для получения местного времени необходимо прибавить поправку, которая равна 12 ч.

Смотрите также архив погоды в соседних городах и на ближайших метеорологических станциях:

Погода в Долиновке (Камчатский край, Россия) (58 км)
Погода в Пущино (Камчатский край, Россия) (64 км)
Погода в Семячике (Камчатский край, Россия) (110 км)
Погода в Эссо (Камчатский край, Россия) (140 км)
Погода в Козыревске (Камчатский край, Россия) (173 км)
Погода в Соболево (Камчатский край, Россия) (173 км)
Погода в Петропавловск-Камч. 2 (Камчатский край, Россия) (178 км)
Погода в Сосновке (Камчатский край, Россия) (178 км)
Погода в Начиках (Камчатский край, Россия) (181 км)
Погода в Петропавловском Маяке (Камчатский край, Россия) (201 км)

Пояснения к столбцам:

Ветер - указаны скорость ветра в м/с - средняя за 10 мин, порывы в срок и между сроками (в фигурных скобках) и направление, откуда дует ветер: С - северный, СВ - северо-восточный, В - восточный, ЮВ - юго-восточный, Ю - южный, ЮЗ - юго-западный, З - западный, СЗ - северо-западный.
Видимость - горизонтальная дальность видимости в метрах или километрах. При видимости от 1 до 10 км при отсутствии осадков обычно наблюдается дымка, при ухудшении видимости до 1 км и менее - туман. В сухую погоду видимость может ухудшаться дымом, пылью или мглою.
Явления - указаны атмосферные явления, наблюдавшиеся в срок или в последний час перед сроком; фигурными скобками обозначены явления, наблюдавшиеся между сроками (за 1-3 часа до срока); квадратными скобками обозначены град или гололедные отложения с указанием их диаметра в мм.
Облачность - указаны через наклонную черту общая и нижняя облачность в баллах и высота нижней границы облаков в метрах; квадратными скобками обозначены формы облаков: Ci - перистые, Cs - перисто-слоистые, Cc - перисто-кучевые, Ac - высококучевые, As - высокослоистые, Sc - слоисто-кучевые, Ns - слоисто-дождевые, Cu - кучевые, Cb - кучево-дождевые. Подробнее классификацию облаков см. в Атласе облаков (PDF).
T - Температура воздуха - температура, измеренная на высоте 2 м над землей.
Td - Температура точки росы - температура, при понижении до которой содержащийся в воздухе водяной пар достигнет насыщения.
f - Относительная влажность воздуха - влажноcть воздуха, измеренная на высоте 2 м над землей.
Te - Эффективная температура - температура, которую ощущает одетый по сезону человек в тени. Характеристика душности погоды. При расчете учитывается влияние влажности воздуха и скорости ветра на теплоощущения человека.
Tes - Эффективная температура на солнце - температура, которую ощущает человек, с поправкой на солнечный нагрев. Характеристика знойности погоды. Зависит от высоты солнца над горизонтом, облачности и скорости ветра. Ночью, в пасмурную погоду, а также при ветре 12 м/с и более поправка равна нулю.
P - Атмосферное давление - приведенное к уровню моря атмосферное давление.
Po - Атмосферное давление - измеренное на уровне метеостанции атмосферное давление.
Tmin - Минимальная температура - минимум температуры воздуха на высоте 2 м над землей.
Tmax - Максимальная температура - максимум температуры воздуха на высоте 2 м над землей.
R - Количество осадков - Количество выпавших осадков за период времени, мм. При наведении курсора мыши на число - период времени, за который выпало указанное количество осадков.
R24 - Количество осадков - Количество выпавших осадков за 24 часа, мм.
S - Снежный покров - Высота снежного покрова, см. При наведении курсора мыши на число - состояние снежного покрова и степень покрытия местности в баллах.